User: anonymous   Login
Location: Albany
(35.0000°S, 118.0000°E)
Time: 19:00:27
(UTC-05:00)
Language:

CZ-4B R/B - Orbit

View from above orbital plane
View from above orbital plane
View from above satellite
View from above satellite

Ground track
Ground track

The orbit data is extracted from the following two-line orbital elements,

1 33410U 08053C   17322.96769916  .00000370  00000-0  31642-4 0  9995
2 33410  97.7499 292.3594 0120702  32.1978 328.6540 14.98470552493968
Epoch (UTC): 18 November 2017 23:13:29
Eccentricity: 0.0120702
inclination: 97.7499°
perigee height: 488 km
apogee height: 655 km
right ascension of ascending node: 292.3594°
argument of perigee: 32.1978°
revolutions per day: 14.98470552
mean anomaly at epoch: 328.6540°
orbit number at epoch: 49396

The dashed part of the orbit path shows where the satellite is in the earth's shadow,  

DLR